Terug naar catalogus

STARLINK-34501

ActiefCommunicatieVLEO
NORAD 64429·PAYLOAD·🇺🇸 United States

Gelanceerd Jun 17, 2025 vanaf Vandenberg Space Force Base

Loading…

Volgende Passages (komende 24 uur)

TLE

VersSource: CelesTrak SupGP

Epoch: Sep 14, 2026, 21:30 UTC

1 64429C 25129T   26257.89631944 -.00001877  00000+0 -65274-4 0  2579
2 64429  69.9995 315.7638 0002924 275.4174 301.8407 15.29591985    12

Volg STARLINK-34501 in realtime met AllMySat

Download on the App Store